Showing default

EXPLORER 11, 107

Orbit data source: Space-Track

EXPLORER 11, 107 is a payload satellite owned by GSFC (US) in LEO that was launched on Thu, 27 Apr 1961 UTC via a JUNO II launch vehicle from the Air Force Eastern Test Range (AFETR). Payload-class satellites include a variety of spacecraft equipped with specific instruments for various scientific and technological missions. These include communications satellites like Starlink; space stations such as the ISS; scientific satellites like the Hubble; Earth observation satellites from companies like Planet Labs, Umbra, and HawkEye 360; GPS; miniature CubeSats for education and research; and military/defense satellites.

Not visible in the next 10 days
Identifier
107, 1961-013A
Orbit
LEO
Country
Flag of USUS
Related business
Manufacturer
NASA MSFC
Mission
Spacecraft
Bus & Motor
S-15, Unknown motor
Mass
45 kg wet, 40 kg dry
Launch date (UTC)
1961-04-27 (64 years ago)
Launch vehicle
JUNO II
Launch site
Air Force Eastern Test Range (AFETR)
Object type
Payload
Rocket body
Debris
Shape & HBR
Unknown
Radar Cross Section
Medium (>0.1 m² and <1 m²)

Expand to show TLE details & history
Last TLE update: 18 hours ago

TLE from 18 hours ago
0 EXPLORER 11
1 00107U 61013A   25295.54734349  .00004864  00000-0  58260-3 0  9997
2 00107  28.7847 245.2736 0500463  71.0087 294.4023 14.20718766242651
Epoch: 2025-10-22T13:08Z
TLE epoch observation values (Epoch: 2025-10-22T13:08:10.477Z)
Latitude
0.00001°
Longitude
17.01058°
Altitude
687.836 km
Speed
7.584 km/s
True Right ascension
16h 21m 05s
True Declination
0° 00' 00"
Sunlit
Object was in daylight at epoch
Visualization orbit readout
Latitude
Unknown
Longitude
Unknown
Altitude
Unknown
Speed
Unknown
Apparent Right ascension
Unknown
Apparent Declination
Unknown
Sunlit
N/A
Visualization observer readout
Local Sidereal Time
01:46:05
Azimuth
Unknown
Elevation
Unknown
Doppler factor
Unknown
Orbital elements
Apogee altitude
1,187.52 km
Perigee altitude
466.346 km
Semi-major axis
7,205.07 km
Eccentricity
0.05005
Inclination
28.7847°
RAAN
245.2736°
Arg. of periapsis
71.0087°
True anomaly
289.04915°
Mean anomaly
294.4023°
Eccentric anomaly
291.73878°
Mean motion
3.54884 °/min
Orbital period
101.44 mins
BSTAR
0.0005826
Loading maneuver chart data...
Computing Atmospheric mass density...
Loading historical data...
Loading historical data...
Loading historical data...
Loading historical data...
Loading historical data...
Loading historical data...
Loading historical data...
Other satellites on launch #13 in the year 1961 (1961-04-27 UTC)

Documentation

Showing up to 5 results
|